[[{"header":{"parameterUnit":"m.s-1","parameterCategory":1,"la1":30.2991,"la2":30.254,"lo1":-89.0895,"lo2":-89.0444,"dy":0.0017,"dx":0.0017,"nx":28,"ny":28,"refTime":"2024-12-08T09:00:00:Z","depth":0,"parameterNumber":2,"parameterNumberName":"U-component_of_WINDS"},"data":[0,0,0,0,0,0,0,0,0,0,0,0,0,0,0,0,0,0,0,0,0,0,0,0,0,0,0,0,0,0,0,0,0,0,0,0,0,0,0,0,0,0,0,0,0,0,0,0,0,0,0,0,0,0,0,0,0,0,-2.8819,-2.8818,0,-2.8749,-2.8749,-2.8748,-2.8682,-2.8681,-2.8681,-2.868,-2.8606,-2.8605,-2.8604,0,0,0,0,0,0,0,0,0,0,0,0,0,-2.8894,-2.8893,-2.8819,-2.8818,-2.8817,-2.875,-2.8749,-2.8748,-2.8682,-2.8681,-2.868,-2.8679,-2.8606,-2.8605,-2.8604,0,0,0,0,0,0,0,0,0,0,0,0,0,-2.8847,-2.8893,-2.8819,-2.8777,-2.8772,-2.875,-2.8749,-2.8747,-2.8682,-2.8681,-2.868,-2.8679,-2.8607,-2.8605,-2.8603,-2.8617,0,0,-2.8598,-2.8597,0,0,0,0,0,0,0,0,-2.8849,-2.8844,-2.8784,-2.878,-2.8775,-2.8723,-2.8748,-2.8703,-2.8683,-2.8716,-2.868,-2.8678,-2.8646,-2.8641,-2.863,-2.8613,-2.861,-2.8598,-2.8597,-2.8596,-2.8595,0,0,0,0,0,0,0,-2.8853,-2.8846,-2.8791,-2.8783,-2.8777,-2.876,-2.8752,-2.8739,-2.8689,-2.8713,-2.8709,-2.8701,-2.8643,-2.8632,-2.8628,-2.8609,-2.8598,-2.8596,-2.8595,-2.8594,-2.8599,-2.86,0,0,0,0,0,0,-2.8863,-2.885,-2.8794,-2.8789,-2.881,-2.876,-2.8751,-2.8741,-2.8689,-2.868,-2.8702,-2.8699,-2.8636,-2.863,-2.8625,-2.8636,-2.8596,-2.8594,-2.8593,-2.8598,-2.8599,-2.86,0,0,0,0,0,0,-2.8865,-2.8858,-2.8796,-2.8818,-2.8809,-2.876,-2.8749,-2.874,-2.8729,-2.868,-2.8671,-2.8701,-2.8635,-2.8628,-2.8619,-2.8633,-2.8593,-2.8592,-2.8596,-2.8598,-2.86,-2.866,0,0,0,0,0,0,-2.8867,-2.8859,-2.8864,-2.8819,-2.8808,-2.8792,-2.875,-2.874,-2.8727,-2.8721,-2.8676,-2.8668,-2.8633,-2.8622,-2.8618,-2.863,-2.859,-2.8595,-2.8597,-2.8599,-2.8656,-2.8664,-2.867,0,0,0,0,0,-2.887,-2.8884,-2.8865,-2.8859,-2.8813,-2.8793,-2.8787,-2.8748,-2.8728,-2.8732,-2.8701,-2.8669,-2.8633,-2.8622,-2.8616,-2.8628,-2.8594,-2.8596,-2.8599,-2.8653,-2.8662,-2.8669,0,0,0,0,0,0,-2.8931,-2.8877,-2.8855,-2.8855,-2.883,-2.8782,-2.8786,-2.8758,-2.8737,-2.8732,-2.8684,-2.8675,-2.8671,-2.8649,-2.8638,-2.8638,-2.8609,-2.861,-2.8652,-2.866,-2.8667,-2.8671,-2.8589,0,0,0,0,0,-2.8945,-2.8934,-2.8887,-2.8891,-2.8879,-2.8836,-2.8825,-2.8797,-2.8768,-2.8757,-2.8725,-2.8698,-2.868,-2.8669,-2.865,-2.8654,-2.8642,-2.8659,-2.8666,-2.8671,-2.8673,-2.8672,-2.8678,-2.8609,-2.8609,-2.8609,0,0,-2.8972,-2.8941,-2.8937,-2.8902,-2.8879,-2.8868,-2.8826,-2.8817,-2.8807,-2.8755,-2.8745,-2.8721,-2.8687,-2.8685,-2.8682,-2.8666,-2.869,-2.8675,-2.868,-2.8678,-2.8675,-2.8682,-2.8688,-2.8611,-2.8611,-2.861,0,0,-2.9016,-2.8993,-2.8993,-2.8971,-2.8937,-2.8908,-2.8908,-2.8866,-2.8848,-2.8837,-2.8798,-2.8786,-2.8757,-2.8734,-2.8719,-2.8756,-2.8726,-2.8752,-2.8785,-2.8785,-2.879,-2.8795,-2.8807,-2.8812,-2.8753,-2.8754,-2.8754,0,-2.9055,-2.9037,-2.8997,-2.8989,-2.8975,-2.8928,-2.8928,-2.8908,-2.887,-2.886,-2.8844,-2.8806,-2.878,-2.8771,-2.878,-2.877,-2.8768,-2.8755,-2.8793,-2.8797,-2.8801,-2.8812,-2.8816,-2.8757,-2.8756,-2.8756,-2.8756,0,-2.9085,-2.9073,-2.9078,-2.9042,-2.9029,-2.9025,-2.8983,-2.8974,-2.8948,-2.8921,-2.8911,-2.8878,-2.8852,-2.8848,-2.8822,-2.8835,-2.8826,-2.8802,-2.8772,-2.8811,-2.8821,-2.8825,-2.8761,-2.876,-2.8759,-2.8759,0,0,-2.9163,-2.9107,-2.9109,-2.9092,-2.9052,-2.9042,-2.9036,-2.9011,-2.9004,-2.8979,-2.8972,-2.8949,-2.8927,-2.8909,-2.8881,-2.8881,-2.8911,-2.8856,-2.8855,-2.8866,-2.8923,-2.894,-2.8945,-2.8892,-2.8893,-2.8893,-2.8925,0,-2.92,-2.9187,-2.9151,-2.9148,-2.9137,-2.9093,-2.9088,-2.9062,-2.9037,-2.9023,-2.8995,-2.8979,-2.8951,-2.894,-2.8939,-2.8908,-2.8921,-2.8905,-2.8883,-2.8883,-2.8891,-2.895,-2.8968,-2.9,-2.8928,-2.8929,-2.8929,0,-2.9239,-2.9218,-2.9215,-2.9175,-2.9169,-2.9165,-2.9139,-2.9127,-2.9097,-2.9078,-2.906,-2.9029,-2.9019,-2.8993,-2.8979,-2.8969,-2.8958,-2.8942,-2.8942,-2.8936,-2.8907,-2.8945,-2.9009,-2.9013,-2.8935,-2.8935,-2.8934,0,-2.9295,-2.9266,-2.926,-2.9247,-2.9201,-2.9199,-2.918,-2.9149,-2.9136,-2.9114,-2.9105,-2.9082,-2.9068,-2.9051,-2.9014,-2.8998,-2.9004,-2.8974,-2.8987,-2.8988,-2.8988,-2.8988,-2.9049,-2.8985,-2.8985,-2.8985,-2.8984,0,-2.9338,-2.9337,-2.9284,-2.9281,-2.9278,-2.9238,-2.9236,-2.9213,-2.9186,-2.9176,-2.9138,-2.9129,-2.9082,-2.9068,-2.9039,-2.9031,-2.9026,-2.901,-2.9002,-2.9012,-2.9014,-2.9003,-2.8999,-2.8986,-2.8985,-2.8985,-2.8985,0,-2.9398,-2.9364,-2.9354,-2.9312,-2.9301,-2.9301,-2.9265,-2.9259,-2.9232,-2.9221,-2.9215,-2.9173,-2.9155,-2.9117,-2.9088,-2.9068,-2.9067,-2.9054,-2.9077,-2.9071,-2.9085,-2.9084,-2.914,-2.9145,-2.9079,-2.908,-2.9081,0,-2.9427,-2.9425,-2.9384,-2.9375,-2.9357,-2.9343,-2.9331,-2.9291,-2.9279,-2.9245,-2.9243,-2.9222,-2.9203,-2.9176,-2.9142,-2.9119,-2.9104,-2.9126,-2.91,-2.9111,-2.9102,-2.9102,-2.9101,-2.913,-2.9131,-2.9132,-2.9133,0,-2.9481,-2.9464,-2.9447,-2.9425,-2.9411,-2.9391,-2.9369,-2.9364,-2.9318,-2.9307,-2.9288,-2.9274,-2.9245,-2.9224,-2.9196,-2.9176,-2.9146,-2.9141,-2.9143,-2.9152,-2.9165,-2.9156,-2.909,-2.914,-2.9139,-2.9138,-2.9138,-2.9138,-2.9525,-2.9521,-2.9491,-2.9474,-2.9454,-2.9434,-2.9427,-2.94,-2.9384,-2.9357,-2.9335,-2.9318,-2.9288,-2.9249,-2.923,-2.9216,-2.9201,-2.9204,-2.9204,-2.9205,-2.9208,-2.9169,-2.9211,-2.9211,-2.921,-2.921,-2.921,0,-2.9575,-2.9554,-2.9539,-2.951,-2.9496,-2.9472,-2.9446,-2.9436,-2.9422,-2.9397,-2.9379,-2.9358,-2.9338,-2.9303,-2.928,-2.9275,-2.9261,-2.927,-2.9268,-2.9264,-2.9223,-2.9224,-2.9281,-2.9281,-2.9281,-2.9281,-2.9281,-2.9281,-2.9599,-2.9592,-2.9572,-2.9554,-2.9532,-2.9516,-2.9504,-2.9485,-2.9465,-2.9443,-2.9426,-2.9404,-2.9375,-2.935,-2.933,-2.932,-2.9312,-2.9326,-2.9311,-2.9274,-2.9267,-2.926,-2.926,-2.9325,-2.9325,-2.9353,-2.9353,-2.9353]},{"header":{"parameterUnit":"m.s-1","parameterCategory":1,"la1":30.2991,"la2":30.254,"lo1":-89.0895,"lo2":-89.0444,"dy":0.0017,"dx":0.0017,"nx":28,"ny":28,"refTime":"2024-12-08T09:00:00:Z","depth":0,"parameterNumber":3,"parameterNumberName":"V-component_of_WINDS"},"data":[0,0,0,0,0,0,0,0,0,0,0,0,0,0,0,0,0,0,0,0,0,0,0,0,0,0,0,0,0,0,0,0,0,0,0,0,0,0,0,0,0,0,0,0,0,0,0,0,0,0,0,0,0,0,0,0,0,0,0.9985,0.9986,0,1.0034,1.0034,1.0035,0.9994,0.9992,0.999,0.9989,1.0043,1.0046,1.0049,0,0,0,0,0,0,0,0,0,0,0,0,0,0.9863,0.9865,0.9985,0.9986,0.9986,1.0034,1.0034,1.0035,0.9994,0.9992,0.999,0.9988,1.0042,1.0045,1.0049,0,0,0,0,0,0,0,0,0,0,0,0,0,0.9914,0.9866,0.9985,0.9971,0.9971,1.0034,1.0034,1.0035,0.9995,0.9992,0.9989,0.9987,1.004,1.0045,1.0049,1.0129,0,0,1.0063,1.0065,0,0,0,0,0,0,0,0,0.9911,0.9919,0.9973,0.9972,0.9972,1.0005,1.0011,1.0067,0.9995,0.9986,0.9989,0.9986,1.0032,1.0037,1.0052,1.0132,1.0134,1.0064,1.0066,1.0068,1.007,0,0,0,0,0,0,0,0.9908,0.9917,1.0004,0.9974,0.9973,0.9965,0.997,1.0021,1.0023,0.9986,0.9983,0.9989,1.0032,1.0048,1.0053,1.0135,1.0064,1.0068,1.007,1.0072,1.0289,1.0292,0,0,0,0,0,0,0.9905,0.9914,1.0003,1.0006,0.9934,0.9969,0.9974,0.9997,1.0022,1.0024,0.9992,0.9987,1.0042,1.0048,1.0055,1.0155,1.0068,1.0073,1.0075,1.0286,1.0289,1.0293,0,0,0,0,0,0,0.9903,0.9913,1.0001,0.9959,0.997,0.9974,1.0,0.9999,1.0016,1.0026,1.0027,1.0008,1.004,1.0049,1.0112,1.0156,1.0075,1.0079,1.0282,1.0287,1.0291,1.0352,0,0,0,0,0,0,0.9899,0.9913,0.9941,0.996,0.9972,1.0055,1.0002,1.0002,1.0023,1.0018,1.0042,1.0043,1.0038,1.0106,1.0117,1.0161,1.0082,1.0278,1.0284,1.029,1.0346,1.0358,1.0368,0,0,0,0,0,0.9895,0.9956,0.9943,0.9954,1.0008,1.0058,1.0065,1.0057,1.0027,1.0057,1.0065,1.0042,1.0149,1.0113,1.0125,1.0171,1.0276,1.0283,1.0289,1.0341,1.0356,1.0368,0,0,0,0,0,0,0.9943,0.9958,0.9944,1.0012,1.0034,1.0051,1.0088,1.0072,1.0103,1.0098,1.0088,1.0094,1.0162,1.0172,1.0131,1.0252,1.0208,1.0217,1.0243,1.0257,1.0268,1.0265,1.0086,0,0,0,0,0,0.9961,0.9999,1.0011,1.007,1.0082,1.0084,1.0105,1.0097,1.012,1.0129,1.0141,1.0166,1.0205,1.0231,1.0267,1.0347,1.0354,1.0385,1.0396,1.0405,1.0414,1.0462,1.0478,1.0315,1.0315,1.0315,0,0,0.9999,1.0013,1.0037,1.008,1.0096,1.0139,1.0091,1.0137,1.0169,1.0136,1.0198,1.0208,1.0235,1.0308,1.0341,1.0319,1.0461,1.0414,1.0421,1.0425,1.0471,1.0486,1.05,1.032,1.0319,1.0318,0,0,1.0092,1.0104,1.0157,1.0175,1.02,1.0201,1.0214,1.0234,1.024,1.0301,1.0279,1.0318,1.0384,1.0406,1.0426,1.0531,1.0514,1.0543,1.0602,1.0649,1.0662,1.0673,1.0715,1.073,1.0552,1.0552,1.0552,0,1.0137,1.0198,1.0187,1.0235,1.0257,1.0229,1.0286,1.0303,1.0339,1.0357,1.0331,1.0417,1.0433,1.0513,1.054,1.0555,1.0573,1.0541,1.066,1.0672,1.0682,1.0723,1.0738,1.0556,1.0555,1.0555,1.0555,0,1.0255,1.0298,1.0338,1.0374,1.04,1.0452,1.0452,1.048,1.0471,1.0476,1.0542,1.056,1.0602,1.062,1.0611,1.0701,1.0687,1.0661,1.0617,1.0702,1.074,1.0755,1.0561,1.056,1.0559,1.0558,0,0,1.0378,1.0409,1.0425,1.0443,1.047,1.0504,1.0557,1.0597,1.0624,1.065,1.0697,1.0756,1.0734,1.0756,1.075,1.0791,1.0879,1.0761,1.0761,1.0786,1.0985,1.1008,1.1025,1.0867,1.087,1.0872,1.0985,0,1.0475,1.0565,1.0559,1.0645,1.0687,1.0663,1.071,1.0733,1.074,1.0779,1.0787,1.0831,1.0795,1.081,1.0849,1.086,1.092,1.0851,1.0914,1.0917,1.0912,1.1044,1.1066,1.1172,1.0999,1.1001,1.1003,0,1.06,1.0632,1.0722,1.0747,1.0765,1.0806,1.0846,1.0882,1.091,1.0913,1.094,1.0928,1.0985,1.0938,1.1019,1.0972,1.0998,1.1008,1.1012,1.102,1.0967,1.106,1.1205,1.1222,1.1025,1.1024,1.1022,0,1.0686,1.0751,1.0815,1.0831,1.0861,1.0892,1.0906,1.0931,1.0957,1.0992,1.101,1.1051,1.1075,1.1109,1.111,1.1074,1.1194,1.1145,1.1201,1.1202,1.1229,1.1228,1.1385,1.124,1.1239,1.1239,1.1239,0,1.0797,1.0855,1.0855,1.0895,1.0961,1.0954,1.1019,1.103,1.1054,1.1098,1.1079,1.1121,1.1119,1.1163,1.1164,1.1234,1.1244,1.125,1.1251,1.1254,1.1254,1.1273,1.1267,1.1243,1.1242,1.1242,1.1241,0,1.0905,1.0907,1.0976,1.0999,1.1007,1.1055,1.1076,1.1116,1.1121,1.1178,1.1191,1.1201,1.1253,1.1257,1.1315,1.1317,1.1403,1.1393,1.1394,1.1393,1.1451,1.1447,1.1628,1.1654,1.1488,1.149,1.1491,0,1.0977,1.1021,1.105,1.1078,1.1094,1.1139,1.1166,1.1162,1.1192,1.123,1.1266,1.1315,1.1355,1.1438,1.1453,1.15,1.1494,1.1554,1.15,1.1504,1.15,1.1499,1.1506,1.1565,1.1567,1.1568,1.1569,0,1.1107,1.1107,1.1146,1.1188,1.1221,1.1254,1.1284,1.1309,1.1309,1.1344,1.1396,1.1427,1.1488,1.154,1.1586,1.1603,1.1589,1.1586,1.1602,1.1608,1.1609,1.1614,1.1426,1.1582,1.1581,1.158,1.1579,1.1579,1.1202,1.1242,1.127,1.1316,1.1339,1.1369,1.1409,1.142,1.1463,1.1513,1.1508,1.1567,1.1599,1.1659,1.168,1.1729,1.1709,1.1731,1.1738,1.1745,1.1753,1.1598,1.1737,1.1736,1.1736,1.1736,1.1735,0,1.1335,1.1352,1.1394,1.1438,1.1476,1.1457,1.1491,1.1525,1.1576,1.1606,1.1646,1.1709,1.1759,1.1778,1.1829,1.1864,1.1859,1.1878,1.1877,1.1883,1.1765,1.1748,1.1882,1.1882,1.1882,1.1882,1.1882,1.1881,1.1409,1.1477,1.1481,1.1562,1.1579,1.1636,1.1658,1.1687,1.1712,1.1782,1.1824,1.1836,1.1863,1.1916,1.1963,1.1968,1.1989,1.2012,1.2014,1.1905,1.189,1.1876,1.1861,1.2015,1.2016,1.2129,1.213,1.213]}]]